www.pogodaiklimat.ru

Погода и климат >> Архив погоды >> Индонезия >> Набире


ПОГОДА в Набире

  • Прогноз погоды в Набире
  • Монитор погоды в Набире

АРХИВ ПОГОДЫ в Набире

Время (UTC), дата Ветер
(напр.,м/с)
 
Видим.   Явления Облачность Т
(С)
Тd
(С)
f
(%)
Тe
(С)
Тes
(С)
Комфортность P
(гПа)
Po
(гПа)
Тmin
(С)
Tmax
(С)
R
(мм)
R24
(мм)
S
(см)
21 14.09 Ю 2 7000 м 8/4 480 м
[Cu Sc Ac trans Ci sp]
+23.9 +22.6 92 +31 +31 очень
душно
1011.3 1010.6
00 15.09 Ю 3 7000 м в посл. час дождь 10/4 480 м
[Cu Sc As op Ci sp]
+25.0 +23.8 93 +34 +37 очень
душно
1012.9 1012.2 +23.5 3
03 15.09 Ю 5 10 км 9/4 480 м
[Cu Sc Ac trans Ci fib]
+28.1 +23.3 75 +38 +42 очень
душно
1010.4 1009.7
06 15.09 З 5 10 км 9/4 480 м
[Cu Sc Ac trans Ci fib]
+30.8 +23.6 66 +42 +44 опасность
перегрева
1008.2 1007.4
09 15.09 штиль 0 7000 м 9/3 480 м
[Cu Sc Ac trans Ci fib]
+29.6 +22.4 65 +39 +39 очень
душно
1009.0 1008.3
12 15.09 ЮЗ 2 4000 м 9/4 420 м
[Cu Sc Ac As Ci sp]
+26.8 +22.2 76 +35 +35 очень
душно
1011.5 1010.7 +32.0
21 15.09 штиль 0 6000 м 10/4 450 м
[Cu Sc Ac As Ci sp]
+24.7 +23.7 94 +34 +34 очень
душно
1012.1 1011.4
00 16.09 Ю 3 7000 м 9/4 450 м
[Cu Sc Ac As Ci sp]
+26.9 +23.7 83 +37 +41 очень
душно
1012.9 1012.2 +23.8 1
03 16.09 СЗ 2 10 км 9/4 450 м
[Cu Sc Ac As Ci sp]
+29.8 +24.0 71 +41 +49 опасность
перегрева
1010.5 1009.8
06 16.09 СЗ 4 8000 м 10/4 500 м
[Cu Sc Ac As Ci sp]
+30.0 +23.0 66 +40 +42 очень
душно
1008.7 1008.0
09 16.09 ЮВ 5 5000 м в посл. час дождь 10/4 480 м
[Cu Sc Ac As Ci sp]
+27.5 +23.4 78 +37 +37 очень
душно
1009.1 1008.4 0.0
12 16.09 Ю 2 5000 м 10/4 480 м
[Cu Sc Ac As Ci sp]
+26.6 +22.2 77 +35 +35 очень
душно
1011.1 1010.4 +31.6 0.0
21 16.09 Ю 4 10 км 5/3 600 м
[Cu hum Ac trans Ci fib]
+23.7 +21.0 85 +30 +30 очень
душно
1011.4 1010.6
00 17.09 Ю 2 12 км 5/3 600 м
[Cu med, cong Ac trans Ci fib]
+28.4 +21.7 67 +36 +43 очень
душно
1012.1 1011.4 +23.5 0.0
03 17.09 СЗ 6 15 км 5/3 600 м
[Cu med, cong Ac trans Ci fib]
+31.4 +23.5 63 +42 +48 опасность
перегрева
1010.1 1009.4
06 17.09 С 4 15 км 5/3 600 м
[Cu med, cong Ac trans Ci fib]
+31.8 +23.6 62 +43 +48 опасность
перегрева
1008.6 1007.9
09 17.09 штиль 0 5000 м 9/4 500 м
[Cu Sc Ac trans Ci fib]
+30.0 +22.7 65 +40 +40 очень
душно
1009.8 1009.1
12 17.09 Ю 2 5000 м {гроза, морось} 8/5 500 м
[Cu Sc Ac trans Ci fib]
+26.8 +23.3 81 +36 +36 очень
душно
1011.8 1011.1 +32.7 0.0
21 17.09 Ю 3 5000 м 6/3 480 м
[Cu Sc Ac trans Ci sp]
+23.5 +21.2 87 +30 +30 очень
душно
1012.1 1011.4
00 18.09 Ю 3 12 км 6/3 480 м
[Cu med, cong Ac trans Ci fib]
+28.0 +22.6 73 +37 +43 очень
душно
1014.0 1013.2 +23.5 0.0
03 18.09 СЗ 5 12 км 5/4 480 м
[Cu med, cong Ci fib]
+31.1 +24.5 68 +44 +51 опасность
перегрева
1011.5 1010.8
06 18.09 СЗ 5 10 км 5/4 450 м
[Cu Sc Ac trans Ci fib]
+31.6 +24.7 67 +45 +48 опасность
перегрева
1008.6 1007.9
09 18.09 СЗ 1 10 км 8/4 450 м
[Cu Sc Ac As Ci sp]
+30.1 +23.8 69 +41 +41 опасность
перегрева
1009.4 1008.7
12 18.09 Ю 2 5000 м слаб. морось 9/6 450 м
[Cu Sc Ac As Ci fib]
+27.0 +24.0 84 +37 +37 очень
душно
1011.8 1011.1 +32.6 0.0
21 18.09 Ю 2 7000 м 5/3 500 м
[Cu med, cong Ac trans Ci fib]
+24.5 +22.3 88 +32 +32 очень
душно
1011.8 1011.1
00 19.09 СВ 5 10 км 6/4 500 м
[Cu med, cong Ac trans Ci fib]
+28.4 +23.9 77 +39 +43 очень
душно
1013.7 1012.9 +23.7 0.0
03 19.09 З 5 10 км 8/4 500 м
[Cu med, cong Ac trans Ci sp]
+30.7 +24.5 70 +43 +49 опасность
перегрева
1010.9 1010.1
06 19.09 С 4 10 км 8/4 210 м
[Cu med, cong Ac trans Ci sp]
+31.0 +23.9 66 +43 +45 опасность
перегрева
1008.6 1007.7
09 19.09 штиль 0 7000 м слаб. морось 8/4 480 м
[Cu med, cong Ac As Ci sp]
+29.8 +23.4 69 +40 +40 очень
душно
1009.9 1009.2
12 19.09 ЮВ 4 4000 м слаб. морось 10/4 450 м
[Cb cap As op Ci ing]
+26.9 +23.6 82 +37 +37 очень
душно
1011.7 1010.9 +31.7 0.4
21 19.09 Ю 2 2000 м слаб. дождь 10/6 450 м
[Cu Sc As op]
+23.6 +22.8 95 +31 +31 очень
душно
1012.1 1011.4 9
00 20.09 Ю 4 8000 м {дождь} 9/5 420 м
[Cu Sc Ac As Ci ing]
+26.4 +23.5 84 +36 +38 очень
душно
1013.1 1012.4 +23.6 0.0 15
03 20.09 СЗ 5 5000 м осадки на расстоянии 10/6 400 м
[Cu Sc As op Ci ing]
+27.4 +23.4 79 +37 +39 очень
душно
1011.5 1010.7
06 20.09 СЗ 3 5000 м в посл. час дождь 10/6 400 м
[Cu Sc As op Ci sp]
+25.3 +23.7 91 +34 +36 очень
душно
1009.8 1009.0 28
09 20.09 Ю 2 3000 м слаб. дождь 10/6 400 м
[Cu Sc As op Ci sp]
+24.2 +22.8 92 +32 +32 очень
душно
1010.6 1009.8 11
12 20.09 Ю 3 4000 м 10/4 450 м
[Cu Sc Ac As Ci sp]
+23.9 +22.5 92 +31 +31 очень
душно
1011.6 1010.8 +28.1 7
21 20.09 ЮЗ 3 7000 м 8/4 450 м
[Cu Sc Ac As Ci sp]
+23.0 +22.0 94 +31 +31 очень
душно
1011.6 1010.9
00 21.09 ЮЗ 5 12 км 6/3 600 м
[Cu Sc Ac trans Ci fib]
+26.8 +22.2 76 +35 +39 очень
душно
1011.8 1011.1 +23.0 49
03 21.09 З 5 12 км 6/3 500 м
[Cu med, cong Ac trans Ci fib]
+29.8 +23.2 68 +40 +46 очень
душно
1010.2 1009.5
06 21.09 В 2 8000 м в посл. час дождь 10/6 480 м
[Cu Sc As op Ci sp]
+27.4 +23.4 79 +37 +40 очень
душно
1008.9 1008.2 1
09 21.09 ЮВ 2 8000 м слаб. дождь 10/6 480 м
[Cu Sc As op Ci sp]
+26.0 +23.1 84 +35 +35 очень
душно
1009.9 1009.2 0.0
12 21.09 штиль 0 5000 м {дождь} 9/5 480 м
[Cu Sc As op Ci sp]
+24.8 +23.6 93 +34 +34 очень
душно
1011.8 1010.6 +30.8 2

 

Местоположение метеостанции Набире (Индонезия): широта -3.33 долгота 135.50 высота над уровнем моря 3 м.

В архиве по умолчанию представлена погода в Набире за последнюю неделю. Архивные данные за месяц целиком и за предыдущие месяцы, начиная с января 2011 года, Вы можете получить, выбрав интересующий диапазон дат из раскрывающегося списка и нажав кнопку "Ввод!".


*Определитесь, кто Вы:
робот инопланетянин человек

Внимание! Время в таблицах - всемирное. Для получения местного времени необходимо прибавить поправку, которая равна 9 ч.

Смотрите также архив погоды в соседних городах и на ближайших метеорологических станциях:

Погода в Энаротали (Индонезия) (117 км)
Погода в Серуи (Индонезия) (182 км)
Погода в Каимана (Индонезия) (198 км)
Погода в Биаке (Индонезия) (249 км)
Погода в Коконао (Индонезия) (285 км)
Погода в Маноквари (Индонезия) (317 км)
Погода в Факфаке (Индонезия) (363 км)
Погода в Вамене (Индонезия) (392 км)
Погода в Сарми (Индонезия) (394 км)
Погода в Туале (Индонезия) (402 км)

Пояснения к столбцам:

Ветер - указаны скорость ветра в м/с - средняя за 10 мин, порывы в срок и между сроками (в фигурных скобках) и направление, откуда дует ветер: С - северный, СВ - северо-восточный, В - восточный, ЮВ - юго-восточный, Ю - южный, ЮЗ - юго-западный, З - западный, СЗ - северо-западный.
Видимость - горизонтальная дальность видимости в метрах или километрах. При видимости от 1 до 10 км при отсутствии осадков обычно наблюдается дымка, при ухудшении видимости до 1 км и менее - туман. В сухую погоду видимость может ухудшаться дымом, пылью или мглою.
Явления - указаны атмосферные явления, наблюдавшиеся в срок или в последний час перед сроком; фигурными скобками обозначены явления, наблюдавшиеся между сроками (за 1-3 часа до срока); квадратными скобками обозначены град или гололедные отложения с указанием их диаметра в мм.
Облачность - указаны через наклонную черту общая и нижняя облачность в баллах и высота нижней границы облаков в метрах; квадратными скобками обозначены формы облаков: Ci - перистые, Cs - перисто-слоистые, Cc - перисто-кучевые, Ac - высококучевые, As - высокослоистые, Sc - слоисто-кучевые, Ns - слоисто-дождевые, Cu - кучевые, Cb - кучево-дождевые. Подробнее классификацию облаков см. в Атласе облаков (PDF).
T - Температура воздуха - температура, измеренная на высоте 2 м над землей.
Td - Температура точки росы - температура, при понижении до которой содержащийся в воздухе водяной пар достигнет насыщения.
f - Относительная влажность воздуха - влажноcть воздуха, измеренная на высоте 2 м над землей.
Te - Эффективная температура - температура, которую ощущает одетый по сезону человек в тени. Характеристика душности погоды. При расчете учитывается влияние влажности воздуха и скорости ветра на теплоощущения человека.
Tes - Эффективная температура на солнце - температура, которую ощущает человек, с поправкой на солнечный нагрев. Характеристика знойности погоды. Зависит от высоты солнца над горизонтом, облачности и скорости ветра. Ночью, в пасмурную погоду, а также при ветре 12 м/с и более поправка равна нулю.
P - Атмосферное давление - приведенное к уровню моря атмосферное давление.
Po - Атмосферное давление - измеренное на уровне метеостанции атмосферное давление.
Tmin - Минимальная температура - минимум температуры воздуха на высоте 2 м над землей.
Tmax - Максимальная температура - максимум температуры воздуха на высоте 2 м над землей.
R - Количество осадков - Количество выпавших осадков за период времени, мм. При наведении курсора мыши на число - период времени, за который выпало указанное количество осадков.
R24 - Количество осадков - Количество выпавших осадков за 24 часа, мм.
S - Снежный покров - Высота снежного покрова, см. При наведении курсора мыши на число - состояние снежного покрова и степень покрытия местности в баллах.